This is the latest recevied weather packets stored in our database for station/object F4ETJ-1. If no packets are shown the sender has not sent any weather packets the latest 10 day(s).
| Time | Temp. | Humidity | Pressure | Rain* | Wind** | Luminosity | Snow |
|---|---|---|---|---|---|---|---|
| 1777822878 | 20° C | 68% | 1008.9 hPa | 0 mm | - | - | - |
| 1777822518 | 20.56° C | 67% | 1008.9 hPa | 0 mm | - | - | - |
| 1777822158 | 21.11° C | 71% | 1008.9 hPa | 0 mm | - | - | - |
| 1777821797 | 21.11° C | 69% | 1008.8 hPa | 0 mm | - | - | - |
| 1777821437 | 21.11° C | 72% | 1008.8 hPa | 0 mm | - | - | - |
| 1777821077 | 20.56° C | 72% | 1008.9 hPa | 0 mm | - | - | - |
| 1777820716 | 20.56° C | 70% | 1008.9 hPa | 0 mm | - | - | - |
| 1777820356 | 20° C | 73% | 1008.8 hPa | 0 mm | - | - | - |
| 1777819996 | 19.44° C | 75% | 1008.8 hPa | 0 mm | - | - | - |
| 1777819636 | 19.44° C | 74% | 1008.9 hPa | 0 mm | - | - | - |
| 1777819275 | 19.44° C | 75% | 1008.9 hPa | 0 mm | - | - | - |
| 1777818915 | 19.44° C | 75% | 1009 hPa | 0.51 mm | - | - | - |
| 1777818554 | 20° C | 76% | 1009.1 hPa | 0.76 mm | - | - | - |
| 1777818194 | 19.44° C | 77% | 1009.2 hPa | 2.29 mm | - | - | - |
| 1777817834 | 19.44° C | 77% | 1009.3 hPa | 2.29 mm | - | - | - |
| 1777817473 | 19.44° C | 77% | 1009.2 hPa | 2.29 mm | - | - | - |
| 1777817113 | 19.44° C | 79% | 1009.3 hPa | 2.29 mm | - | - | - |
| 1777816753 | 19.44° C | 80% | 1009.3 hPa | 2.29 mm | - | - | - |
| 1777816392 | 18.89° C | 80% | 1009.4 hPa | 2.29 mm | - | - | - |
| 1777816032 | 19.44° C | 85% | 1009.4 hPa | 2.29 mm | - | - | - |
| 1777815672 | 18.33° C | 86% | 1009.5 hPa | 2.29 mm | - | - | - |
| 1777815311 | 17.78° C | 83% | 1009.6 hPa | 1.78 mm | - | - | - |
| 1777814951 | 18.33° C | 81% | 1009.6 hPa | 1.52 mm | - | - | - |
| 1777814590 | 18.89° C | 77% | 1009.7 hPa | 0 mm | - | - | - |
| 1777814230 | 20° C | 72% | 1009.7 hPa | 0 mm | - | - | - |
* Rain latest hour (hover to see other rain measurements)
** Current wind speed in m/s (hover to see current wind gust speed)